Temperature
-0 -0 -0 -0 -0 -0 -0 -0 -0 -1 -1 -1 -1 -1 -1 -1 -1 -1 -1 -1 -1 -1 -1 -1 -1 -1 -2 -2 -2 -2 -2 -2 -2 -2 -2 -2 -1 -1 -1 -1 -1 -0 -0
-0 -0 -1 -1 -1 -1 -1 -1 -1 -1 -1 -1 -1 -1 -1 -1 -1 -1 -1 -1 -1 -1 -1 -2 -2 -2 -2 -2 -2 -2 -3 -3 -3 -3 -2 -2 -2 -2 -2 -2 -2 -1 -1
-1 -1 -1 -1 -1 -1 -1 -1 -1 -2 -2 -2 -2 -2 -2 -2 -2 -2 -2 -2 -2 -2 -2 -2 -2 -2 -3 -3 -3 -3 -3 -3 -3 -3 -3 -3 -3 -3 -3 -2 -2 -2 -2
-2 -2 -2 -2 -2 -2 -2 -2 -2 -2 -2 -3 -3 -3 -3 -3 -3 -3 -3 -3 -3 -3 -3 -3 -3 -3 -3 -3 -4 -4 -4 -4 -4 -4 -4 -4 -3 -3 -3 -3 -3 -3 -3
-2 -2 -2 -3 -3 -3 -3 -3 -3 -3 -3 -3 -3 -3 -3 -3 -3 -3 -3 -3 -3 -4 -4 -4 -4 -4 -4 -4 -4 -4 -4 -4 -4 -4 -4 -4 -4 -4 -4 -4 -4 -4 -3
-3 -3 -3 -3 -3 -3 -3 -3 -3 -4 -4 -4 -4 -4 -4 -4 -4 -4 -4 -4 -4 -4 -4 -4 -4 -5 -5 -5 -5 -5 -5 -5 -5 -5 -5 -5 -5 -5 -4 -5 -5 -5 -4
-3 -3 -4 -4 -4 -4 -4 -4 -4 -4 -4 -4 -4 -4 -4 -4 -4 -4 -5 -5 -5 -5 -5 -5 -5 -5 -5 -5 -5 -5 -5 -6 -6 -6 -6 -5 -5 -5 -5 -5 -5 -5 -5
-4 -4 -4 -4 -5 -5 -5 -5 -5 -5 -5 -5 -5 -5 -5 -5 -5 -5 -5 -5 -5 -5 -6 -6 -6 -6 -6 -6 -6 -6 -6 -6 -6 -6 -6 -6 -6 -6 -6 -6 -6 -6 -6
-5 -5 -5 -5 -5 -5 -5 -6 -6 -6 -5 -5 -5 -5 -6 -6 -6 -6 -6 -6 -6 -6 -6 -6 -6 -6 -6 -6 -6 -6 -6 -6 -6 -7 -7 -7 -7 -7 -7 -7 -7 -7 -7
-5 -5 -5 -5 -6 -6 -6 -6 -6 -6 -6 -6 -6 -6 -6 -6 -6 -6 -6 -7 -7 -7 -7 -7 -7 -7 -7 -7 -7 -7 -7 -7 -7 -7 -7 -7 -7 -7 -7 -7 -7 -7 -8
-6 -6 -6 -6 -6 -6 -6 -7 -7 -7 -7 -7 -7 -7 -7 -7 -7 -7 -7 -7 -7 -7 -7 -7 -7 -7 -7 -7 -7 -7 -7 -7 -8 -8 -8 -7 -7 -7 -7 -7 -8 -8 -8
-6 -6 -6 -6 -7 -7 -7 -7 -7 -8 -8 -8 -8 -8 -8 -8 -8 -8 -8 -8 -8 -8 -8 -8 -8 -8 -8 -8 -8 -8 -8 -8 -8 -8 -8 -8 -8 -8 -8 -8 -8 -8 -8
-7 -7 -7 -7 -7 -8 -8 -8 -8 -8 -9 -9 -9 -9 -9 -9 -8 -8 -8 -8 -8 -8 -8 -8 -8 -8 -8 -8 -8 -8 -8 -9 -9 -9 -9 -9 -9 -9 -8 -8 -8 -8 -8
-8 -8 -8 -8 -8 -8 -8 -9 -9 -9 -9 -9 -9 -9 -9 -9 -9 -9 -9 -9 -9 -9 -9 -9 -9 -9 -9 -9 -9 -9 -9 -9 -9 -9 -9 -9 -9 -9 -9 -9 -9 -9 -9
-8 -8 -8 -8 -9 -9 -9 -9 -9 -9 -10 -10 -10 -10 -10 -10 -9 -9 -9 -9 -9 -9 -9 -9 -9 -9 -9 -9 -9 -9 -9 -9 -9 -10 -10 -10 -10 -10 -10 -10 -10 -10 -10
-9 -9 -9 -9 -9 -10 -10 -10 -10 -10 -10 -10 -10 -10 -10 -10 -10 -10 -10 -9 -10 -9 -10 -10 -10 -10 -10 -10 -10 -10 -10 -10 -10 -10 -10 -10 -10 -10 -10 -10 -10 -10 -10
-10 -10 -10 -10 -10 -10 -10 -11 -11 -10 -11 -11 -11 -11 -11 -11 -11 -10 -10 -10 -10 -10 -10 -10 -10 -10 -10 -10 -10 -10 -10 -10 -10 -10 -10 -10 -10 -11 -11 -11 -11 -11 -11
-10 -10 -10 -11 -11 -11 -11 -11 -11 -11 -11 -11 -11 -11 -11 -11 -11 -11 -11 -11 -11 -11 -11 -11 -11 -11 -11 -11 -11 -11 -11 -11 -11 -11 -11 -11 -11 -11 -11 -11 -11 -11 -11
-11 -11 -11 -11 -11 -11 -12 -12 -12 -12 -12 -12 -12 -12 -12 -12 -12 -12 -12 -11 -11 -12 -12 -12 -12 -12 -12 -12 -12 -11 -11 -11 -11 -11 -11 -11 -11 -12 -12 -12 -12 -12 -12
-12 -12 -12 -12 -12 -12 -12 -12 -12 -13 -12 -12 -12 -12 -12 -12 -12 -12 -12 -12 -12 -12 -12 -12 -12 -12 -12 -12 -12 -12 -12 -12 -12 -12 -12 -12 -12 -12 -12 -12 -12 -12 -12
-12 -12 -12 -12 -12 -13 -13 -13 -13 -13 -13 -13 -13 -13 -13 -13 -13 -13 -13 -13 -13 -13 -13 -13 -13 -13 -13 -12 -12 -12 -12 -12 -12 -12 -12 -12 -12 -12 -12 -12 -12 -12 -12
-13 -13 -13 -13 -13 -13 -13 -13 -13 -13 -13 -13 -13 -13 -13 -13 -13 -13 -13 -13 -13 -13 -13 -13 -13 -13 -13 -13 -13 -13 -13 -13 -13 -13 -13 -13 -13 -13 -13 -13 -13 -12 -12
-13 -13 -13 -13 -13 -13 -13 -13 -13 -13 -13 -13 -14 -14 -14 -14 -14 -14 -14 -14 -14 -14 -14 -13 -13 -13 -13 -13 -13 -13 -13 -13 -13 -13 -13 -13 -13 -13 -13 -13 -13 -13 -13
-13 -13 -13 -14 -14 -14 -14 -14 -14 -14 -14 -14 -14 -14 -14 -14 -14 -14 -14 -14 -14 -14 -14 -14 -14 -14 -14 -13 -13 -13 -13 -13 -13 -13 -13 -13 -13 -13 -13 -13 -13 -13 -13
-14 -14 -14 -14 -14 -14 -14 -14 -14 -14 -14 -14 -14 -14 -14 -14 -14 -14 -14 -14 -14 -14 -14 -14 -14 -14 -14 -14 -14 -13 -13 -13 -13 -13 -14 -14 -14 -13 -13 -13 -13 -13 -13
-14 -14 -14 -14 -14 -14 -14 -14 -14 -14 -14 -14 -14 -14 -14 -14 -14 -14 -14 -14 -14 -14 -14 -14 -14 -14 -14 -14 -14 -14 -14 -13 -13 -14 -14 -14 -14 -14 -13 -13 -13 -13 -13
Wind_Speed
4 4 4 4 4 4 4 4 4 4 4 4 3 2 2 1 1 1 1 1 1 1 1 1 1 1 1 1 1 1 2 2 4 4 3 3 4 4 8 9 10 10 11
4 4 4 4 4 4 4 4 4 4 3 3 3 2 2 1 1 2 2 2 2 2 2 1 2 1 2 2 2 2 2 2 3 5 4 4 4 4 5 6 9 9 10
4 4 4 4 4 4 4 3 4 3 3 3 3 3 2 2 2 2 2 2 2 2 2 2 2 2 2 2 2 3 3 3 3 4 5 4 4 4 4 5 7 7 10
4 4 4 4 4 4 3 3 3 3 3 3 2 2 2 2 2 1 1 2 2 2 2 2 2 3 3 3 3 3 3 3 3 4 5 4 4 4 3 4 5 4 5
4 4 3 3 3 3 3 3 3 3 2 2 2 2 2 2 2 2 2 2 2 2 2 2 2 3 5 4 4 3 3 3 3 4 5 5 5 3 4 4 5 5 5
4 3 3 4 3 3 3 3 3 2 2 2 2 2 2 2 3 4 3 2 2 2 3 3 3 4 5 7 8 7 7 5 5 4 5 6 6 5 4 4 5 6 5
3 3 3 4 3 3 3 3 3 2 2 2 2 2 2 2 4 4 4 2 2 3 3 3 3 4 5 4 6 8 8 10 10 7 6 6 7 5 4 5 5 6 7
3 3 3 3 3 2 3 3 2 2 2 2 2 2 2 3 4 4 3 1 2 3 3 4 4 4 4 4 4 4 5 6 8 7 6 7 6 5 5 6 7 7 6
3 2 2 3 2 2 2 2 1 1 1 1 2 2 2 3 4 4 3 2 2 3 3 3 3 4 6 7 4 4 5 6 9 11 12 11 11 12 10 4 4 5 7
2 2 1 2 2 2 2 1 1 1 1 1 1 2 3 3 5 4 3 2 2 2 2 3 5 5 7 7 4 4 5 5 5 6 7 8 8 9 10 5 4 5 6
2 2 1 2 2 2 1 1 1 1 1 1 1 2 2 3 4 4 4 2 2 2 2 2 3 7 8 8 7 4 7 6 4 4 5 4 4 4 5 5 5 4 5
2 2 1 1 1 1 2 1 1 1 1 1 1 1 1 2 3 4 5 4 3 2 3 2 3 7 7 8 6 6 8 6 3 3 4 4 4 4 4 5 7 7 7
2 2 1 1 1 1 1 1 1 1 1 1 1 1 1 1 2 4 5 5 5 2 2 4 5 6 6 5 5 6 5 3 3 3 4 4 4 4 4 4 5 7 8
2 2 1 1 1 1 0 0 1 1 1 2 2 1 1 1 2 2 2 3 4 3 2 4 5 5 4 4 4 3 2 3 3 3 4 4 3 3 3 3 4 4 5
2 1 1 1 1 1 1 1 1 1 2 2 2 2 2 2 4 5 4 3 2 3 1 1 1 1 1 2 2 2 2 2 3 3 3 4 4 4 4 3 4 4 5
1 1 1 1 1 0 0 2 3 2 3 3 3 3 3 5 6 6 6 5 4 3 1 1 1 2 2 2 2 2 2 2 3 3 3 4 4 4 5 5 4 5 6
1 1 1 1 1 1 0 0 1 2 3 3 3 4 4 5 5 5 5 4 3 2 1 1 2 2 2 2 2 2 3 3 3 3 3 4 4 4 5 5 5 5 6
1 1 1 1 1 1 1 1 0 1 1 2 3 4 5 5 5 5 4 2 1 1 1 1 2 2 2 2 2 3 3 3 3 3 3 3 3 4 5 5 5 5 6
1 1 1 1 1 1 1 1 1 1 1 2 2 3 4 5 5 4 3 1 1 1 1 1 2 2 2 3 2 2 3 3 3 3 4 4 3 4 4 5 5 8 7
2 3 2 1 1 1 1 1 1 1 1 1 2 2 2 2 2 2 2 1 1 2 2 2 2 2 2 3 3 3 3 4 4 4 4 4 4 4 5 6 6 6 6
2 2 3 2 1 1 1 1 1 1 1 2 2 3 4 2 2 2 2 2 2 2 2 2 2 2 3 3 3 4 4 4 4 4 4 4 4 4 5 5 5 6 6
1 1 1 1 1 1 1 1 1 1 2 2 2 3 5 3 2 2 2 2 2 2 2 2 2 3 3 3 3 4 4 4 4 4 4 4 4 5 5 5 5 5 5
1 2 2 2 1 3 2 1 1 2 2 2 2 3 3 2 2 3 3 3 3 3 3 3 3 3 5 6 6 5 5 5 5 5 5 5 5 5 5 6 6 6 6
1 2 2 2 2 2 2 2 2 2 2 3 3 3 3 3 3 3 3 3 3 4 5 5 5 6 7 7 8 8 9 10 9 8 7 6 6 6 6 6 6 7 6
2 2 2 2 2 2 2 2 3 3 3 3 3 3 3 3 3 3 3 3 4 4 5 6 6 7 9 10 10 11 12 13 12 10 8 6 6 7 7 7 7 7 6
2 2 2 2 2 3 3 3 3 3 3 4 3 3 3 3 4 4 4 4 4 5 6 7 8 10 11 11 12 13 14 13 13 13 10 7 6 6 6 6 7 7 7
Wind_Direction
165 161 162 168 166 158 155 153 150 143 143 147 149 151 157 162 160 157 173 170 185 223 253 233 244 246 273 288 272 272 279 265 270 285 289 292 289 296 309 311 310 308 307
161 160 162 158 153 149 147 146 144 144 143 144 145 151 160 164 180 186 196 197 200 215 230 230 251 251 252 268 274 262 260 262 261 280 286 291 280 280 291 297 305 305 306
151 154 154 153 151 148 146 143 143 144 145 146 148 157 168 180 195 212 210 203 209 218 220 225 240 236 251 258 263 266 266 272 269 275 283 282 279 278 286 291 293 297 304
144 148 153 155 152 148 145 142 144 149 150 157 161 168 177 186 197 205 223 215 216 224 229 233 237 236 238 244 254 264 270 267 267 274 279 282 282 272 274 287 294 290 296
136 143 148 143 143 142 144 145 144 150 157 160 161 173 180 193 198 198 215 218 217 229 244 248 245 253 257 255 259 259 269 267 268 272 280 287 285 285 280 285 292 300 292
138 140 138 141 142 144 149 149 145 149 156 161 177 186 197 218 217 219 223 220 221 225 239 252 257 262 269 271 274 274 270 270 268 265 274 277 284 279 282 290 292 299 298
139 141 142 141 143 150 154 150 153 162 165 172 185 196 216 232 229 227 232 234 226 231 235 240 259 267 277 270 272 278 280 279 276 272 269 273 284 284 285 288 286 284 285
137 142 141 138 141 147 151 155 164 163 175 191 201 215 229 246 241 236 240 246 236 234 233 234 240 252 265 270 263 270 271 276 280 281 271 271 278 284 271 273 276 284 285
123 131 138 142 142 144 155 164 162 161 189 215 212 214 226 248 249 243 245 237 233 241 245 244 245 244 264 272 271 267 273 277 285 283 281 283 288 294 296 291 287 290 293
120 117 125 135 147 156 158 161 156 172 202 229 240 230 227 237 245 245 254 233 230 234 248 253 258 261 267 270 262 255 268 277 286 292 291 293 292 294 296 290 279 279 288
86 95 105 118 135 144 136 144 159 184 192 232 249 255 241 239 246 248 260 260 227 226 236 245 254 267 272 273 276 262 270 282 277 277 281 283 284 285 283 289 282 271 276
80 82 82 90 116 125 131 155 178 182 193 219 238 269 270 258 260 257 261 279 272 235 237 243 256 274 280 279 282 282 284 287 278 277 279 284 287 290 290 291 287 284 276
70 62 61 53 51 113 154 177 185 191 202 227 230 253 279 289 269 271 271 283 289 284 263 272 278 281 284 280 287 288 289 282 279 282 286 290 288 286 290 296 295 294 294
70 48 50 64 51 41 1 227 203 210 222 237 240 247 269 284 277 269 270 277 283 280 275 275 282 285 290 287 288 290 288 277 281 280 283 289 292 294 291 298 303 304 302
60 43 27 27 55 29 343 310 274 241 242 243 230 239 244 256 270 280 283 268 258 249 252 245 274 277 272 276 278 268 270 280 287 290 291 297 298 297 301 302 302 301 295
42 24 16 15 9 6 4 352 343 322 301 294 287 279 275 279 289 292 289 280 275 263 226 209 246 258 268 271 279 285 283 282 286 286 285 290 293 295 301 304 300 293 290
26 347 331 332 320 305 298 306 340 346 334 319 303 295 296 295 296 300 295 282 268 257 252 241 254 262 276 288 286 282 285 286 284 281 282 281 285 291 295 296 296 296 292
9 340 345 337 327 310 291 280 263 293 322 325 315 310 313 310 305 305 309 319 294 287 251 247 258 267 273 283 289 293 293 297 293 290 285 277 281 288 289 289 290 291 293
355 344 348 348 336 318 307 295 286 288 292 304 319 318 320 323 322 317 323 342 290 286 280 272 273 278 280 280 285 290 292 292 291 289 285 280 281 284 283 286 288 292 295
347 341 346 342 331 317 301 285 284 280 284 293 300 310 323 332 334 327 331 326 299 293 288 281 280 278 279 278 280 283 285 286 286 286 288 286 283 279 278 282 285 288 288
345 341 338 337 328 313 306 296 292 285 284 291 296 296 307 312 300 303 309 308 299 291 288 283 281 281 280 283 282 276 274 276 280 282 283 283 284 283 279 279 280 280 285
345 336 323 314 313 301 297 284 280 282 285 291 296 296 307 319 309 301 303 304 303 301 292 290 287 287 281 280 276 270 269 270 273 276 279 280 282 284 282 278 279 280 282
329 315 309 304 296 289 304 302 291 286 286 286 289 295 298 295 291 290 291 294 299 295 291 287 287 287 286 276 271 265 263 266 268 271 274 275 278 278 277 276 276 278 281
314 299 295 294 292 286 286 288 285 284 282 283 287 287 284 281 283 286 286 288 288 288 285 281 278 277 282 283 277 273 269 269 268 267 261 262 267 272 274 275 275 274 275
291 288 286 281 277 275 277 279 277 277 281 283 283 283 283 282 282 282 283 283 282 282 284 281 277 276 279 281 280 279 281 283 281 275 262 257 260 260 264 267 269 273 273
290 285 284 284 278 273 271 273 275 277 277 280 280 278 277 277 277 277 279 280 283 283 283 281 277 277 279 280 283 286 289 289 286 283 275 264 261 262 262 264 267 268 270
Height
1466 1467 1470 1472 1474 1476 1477 1479 1481 1482 1483 1484 1486 1488 1490 1491 1492 1493 1495 1496 1497 1497 1498 1499 1499 1500 1500 1500 1501 1501 1501 1501 1499 1497 1497 1497 1497 1497 1496 1496 1495 1495 1494
1463 1465 1467 1469 1470 1472 1473 1475 1477 1478 1480 1482 1483 1485 1486 1487 1488 1490 1491 1492 1493 1494 1494 1494 1495 1496 1496 1496 1497 1497 1497 1497 1496 1493 1492 1493 1492 1492 1491 1491 1490 1490 1489
1460 1462 1464 1465 1467 1468 1470 1472 1474 1475 1477 1478 1480 1481 1482 1483 1485 1486 1487 1488 1489 1490 1490 1491 1491 1492 1492 1492 1492 1492 1492 1492 1492 1490 1488 1488 1487 1487 1487 1486 1485 1484 1484
1457 1459 1460 1462 1463 1465 1467 1468 1470 1472 1473 1475 1476 1477 1478 1480 1481 1482 1483 1484 1485 1485 1486 1487 1487 1488 1488 1488 1488 1488 1488 1488 1487 1486 1484 1483 1483 1482 1482 1480 1479 1479 1478
1455 1456 1458 1459 1461 1462 1464 1465 1467 1468 1470 1471 1473 1474 1475 1476 1477 1478 1479 1480 1480 1481 1481 1482 1483 1483 1484 1484 1484 1484 1484 1483 1483 1482 1480 1479 1478 1477 1477 1475 1474 1473 1472
1452 1454 1455 1457 1458 1459 1460 1462 1463 1465 1466 1468 1469 1470 1471 1472 1473 1475 1476 1476 1476 1476 1477 1477 1478 1478 1479 1479 1480 1480 1480 1479 1478 1477 1476 1475 1473 1473 1472 1471 1470 1468 1466
1450 1451 1453 1454 1455 1456 1457 1458 1460 1461 1463 1464 1465 1466 1467 1468 1470 1471 1471 1472 1472 1472 1472 1473 1473 1474 1474 1474 1474 1474 1474 1474 1474 1473 1472 1471 1470 1469 1468 1466 1465 1464 1462
1448 1449 1450 1451 1452 1454 1454 1456 1457 1458 1460 1461 1462 1463 1463 1465 1466 1466 1467 1467 1467 1467 1468 1468 1469 1469 1469 1470 1469 1469 1469 1468 1468 1468 1467 1466 1465 1465 1464 1462 1461 1459 1457
1447 1447 1448 1449 1450 1451 1452 1453 1454 1455 1456 1457 1458 1459 1460 1461 1462 1462 1463 1463 1463 1463 1463 1464 1464 1464 1465 1465 1465 1464 1463 1463 1463 1463 1462 1461 1460 1460 1459 1458 1456 1454 1451
1444 1445 1446 1447 1448 1448 1449 1451 1452 1453 1453 1454 1455 1456 1456 1457 1458 1458 1459 1458 1458 1458 1459 1459 1459 1460 1460 1460 1460 1459 1458 1457 1457 1457 1457 1456 1455 1454 1454 1453 1452 1450 1447
1443 1443 1444 1445 1445 1446 1447 1448 1449 1450 1450 1451 1451 1452 1453 1453 1454 1454 1454 1454 1454 1454 1454 1454 1454 1455 1455 1455 1455 1454 1453 1453 1452 1452 1451 1450 1450 1449 1448 1447 1447 1446 1444
1441 1442 1442 1443 1443 1444 1445 1445 1446 1447 1447 1447 1448 1448 1449 1449 1450 1450 1450 1450 1450 1450 1449 1450 1450 1450 1450 1450 1449 1449 1449 1449 1448 1447 1447 1445 1445 1444 1443 1442 1442 1441 1439
1439 1440 1440 1441 1441 1442 1442 1442 1443 1444 1444 1444 1444 1444 1445 1445 1446 1446 1446 1446 1446 1446 1446 1446 1446 1446 1446 1445 1445 1445 1445 1444 1444 1443 1442 1441 1440 1439 1438 1437 1436 1435 1434
1437 1438 1438 1438 1439 1439 1440 1440 1441 1441 1441 1441 1441 1441 1441 1441 1441 1441 1441 1441 1441 1441 1441 1442 1442 1442 1442 1442 1441 1441 1441 1441 1440 1439 1438 1437 1436 1435 1434 1433 1431 1430 1428
1436 1436 1436 1436 1437 1437 1438 1438 1438 1439 1439 1439 1438 1438 1438 1437 1437 1437 1437 1436 1437 1437 1437 1437 1437 1437 1437 1437 1437 1437 1437 1437 1436 1435 1434 1433 1432 1431 1429 1428 1427 1425 1423
1434 1434 1434 1435 1435 1435 1435 1436 1436 1436 1436 1436 1436 1436 1435 1435 1434 1433 1432 1432 1433 1433 1433 1433 1433 1433 1433 1433 1433 1433 1433 1433 1432 1431 1430 1429 1428 1426 1425 1424 1422 1420 1418
1433 1433 1433 1433 1433 1433 1433 1433 1433 1433 1433 1433 1433 1433 1432 1432 1431 1430 1430 1429 1430 1430 1430 1429 1430 1430 1430 1430 1430 1429 1429 1428 1428 1427 1426 1425 1424 1422 1421 1419 1418 1416 1414
1431 1431 1431 1431 1431 1431 1431 1430 1430 1430 1429 1429 1430 1430 1429 1429 1428 1427 1427 1427 1426 1427 1426 1427 1427 1427 1427 1426 1426 1425 1425 1424 1424 1423 1422 1421 1419 1418 1416 1415 1413 1412 1410
1430 1429 1429 1429 1429 1429 1428 1428 1428 1428 1427 1427 1426 1426 1426 1426 1425 1425 1424 1424 1423 1423 1424 1424 1424 1424 1423 1423 1422 1422 1421 1420 1419 1419 1417 1416 1415 1414 1412 1411 1409 1408 1406
1428 1428 1428 1427 1427 1427 1426 1426 1426 1426 1425 1425 1424 1424 1423 1423 1422 1422 1422 1421 1421 1421 1421 1421 1420 1420 1420 1419 1419 1418 1417 1416 1415 1414 1413 1412 1411 1410 1408 1407 1405 1403 1401
1426 1426 1426 1426 1425 1425 1425 1424 1424 1424 1423 1422 1422 1422 1422 1421 1420 1420 1419 1419 1419 1418 1418 1417 1417 1416 1416 1415 1414 1414 1413 1412 1411 1410 1409 1408 1407 1406 1404 1403 1401 1400 1398
1425 1424 1424 1424 1424 1423 1423 1423 1422 1422 1421 1420 1420 1420 1419 1419 1418 1417 1417 1416 1416 1415 1415 1414 1413 1412 1412 1411 1410 1409 1408 1407 1406 1405 1405 1404 1403 1401 1400 1399 1397 1396 1394
1423 1423 1422 1422 1422 1421 1421 1420 1420 1419 1419 1418 1418 1417 1416 1416 1415 1415 1414 1413 1412 1411 1411 1410 1409 1408 1408 1407 1406 1405 1404 1403 1402 1401 1400 1399 1398 1397 1396 1395 1393 1392 1390
1421 1421 1420 1420 1419 1419 1418 1418 1417 1417 1416 1416 1415 1414 1414 1413 1412 1411 1410 1410 1408 1407 1406 1406 1405 1404 1403 1402 1401 1401 1400 1399 1398 1397 1396 1395 1394 1393 1392 1390 1389 1388 1386
1419 1419 1418 1417 1417 1416 1416 1415 1415 1414 1414 1413 1412 1411 1411 1410 1409 1408 1407 1406 1404 1403 1402 1402 1401 1400 1399 1398 1397 1396 1395 1394 1393 1392 1391 1390 1389 1388 1387 1386 1385 1384 1382
1417 1416 1416 1415 1414 1414 1413 1413 1412 1411 1410 1410 1409 1408 1407 1406 1405 1404 1403 1401 1400 1399 1398 1397 1396 1395 1394 1393 1392 1391 1390 1390 1389 1388 1387 1386 1385 1384 1383 1381 1380 1379 1378